| time (UTC) | temp F | wind direction | speed MPH | gust MPH | rain 1hr in | rain 24hr in | rain mn in | humidity % | barometer mb |
| 20260504044547 | 74 | 104 | 0.0 | 0.0 | 0.00 | 0.00 | 0.00 | 28 | 1008.0 |
| 20260504043104 | 74 | 292 | 0.0 | 0.0 | 0.00 | 0.00 | 0.00 | 28 | 1008.0 |
| 20260504041541 | 75 | 249 | 0.0 | 0.0 | 0.00 | 0.00 | 0.00 | 26 | 1007.9 |
| 20260504040042 | 76 | 287 | 0.0 | 0.0 | 0.00 | 0.00 | 0.00 | 25 | 1007.6 |
| 20260504034547 | 77 | 257 | 0.0 | 5.0 | 0.00 | 0.00 | 0.00 | 23 | 1007.2 |
| 20260504033038 | 77 | 264 | 0.0 | 5.0 | 0.00 | 0.00 | 0.00 | 22 | 1006.9 |
| 20260504031548 | 78 | 253 | 1.0 | 7.0 | 0.00 | 0.00 | 0.00 | 21 | 1006.7 |
| 20260504030046 | 78 | 255 | 0.0 | 4.0 | 0.00 | 0.00 | 0.00 | 20 | 1006.1 |
| 20260504024539 | 79 | 255 | 0.0 | 6.0 | 0.00 | 0.00 | 0.00 | 19 | 1005.7 |
| 20260504023008 | 80 | 187 | 0.0 | 8.0 | 0.00 | 0.00 | 0.00 | 18 | 1005.4 |
| 20260504021509 | 81 | 258 | 0.0 | 4.0 | 0.00 | 0.00 | 0.00 | 16 | 1005.0 |
| 20260504020001 | 82 | 259 | 0.0 | 4.0 | 0.00 | 0.00 | 0.00 | 15 | 1004.9 |
| 20260504014608 | 83 | 256 | 1.0 | 8.0 | 0.00 | 0.00 | 0.00 | 14 | 1004.7 |
| 20260504014502 | 83 | 248 | 2.0 | 8.0 | 0.00 | 0.00 | 0.00 | 14 | 1004.7 |
| 20260504013100 | 85 | 264 | 4.0 | 9.0 | 0.00 | 0.00 | 0.00 | 13 | 1004.5 |
| 20260504011559 | 89 | 254 | 0.0 | 5.0 | 0.00 | 0.00 | 0.00 | 12 | 1004.4 |
| 20260504010027 | 89 | 272 | 1.0 | 6.0 | 0.00 | 0.00 | 0.00 | 11 | 1004.6 |
| 20260504004539 | 89 | 224 | 1.0 | 7.0 | 0.00 | 0.00 | 0.00 | 11 | 1004.7 |
| 20260504003023 | 90 | 230 | 1.0 | 8.0 | 0.00 | 0.00 | 0.00 | 11 | 1004.7 |
| 20260504001531 | 92 | 267 | 1.0 | 6.0 | 0.00 | 0.00 | 0.00 | 12 | 1004.6 |
| 20260504000022 | 93 | 243 | 0.0 | 11.0 | 0.00 | 0.00 | 0.00 | 11 | 1004.4 |
| 20260503234524 | 91 | 276 | 8.0 | 13.0 | 0.00 | 0.00 | 0.00 | 11 | 1004.2 |
| 20260503233019 | 93 | 255 | 1.0 | 5.0 | 0.00 | 0.00 | 0.00 | 12 | 1004.1 |
| 20260503231521 | 93 | 242 | 1.0 | 6.0 | 0.00 | 0.00 | 0.00 | 12 | 1004.3 |
| 20260503230017 | 94 | 259 | 3.0 | 8.0 | 0.00 | 0.00 | 0.00 | 13 | 1004.1 |
| 20260503224514 | 95 | 113 | 1.0 | 5.0 | 0.00 | 0.00 | 0.00 | 14 | 1004.3 |
| 20260503223011 | 94 | 216 | 1.0 | 7.0 | 0.00 | 0.00 | 0.00 | 14 | 1004.6 |
| 20260503221508 | 95 | 254 | 2.0 | 6.0 | 0.00 | 0.00 | 0.00 | 15 | 1004.6 |
| 20260503220012 | 91 | 92 | 1.0 | 10.0 | 0.00 | 0.00 | 0.00 | 18 | 1004.6 |
| 20260503214500 | 90 | 25 | 1.0 | 5.0 | 0.00 | 0.00 | 0.00 | 22 | 1004.7 |
| 20260503213056 | 89 | 167 | 2.0 | 4.0 | 0.00 | 0.00 | 0.00 | 25 | 1005.2 |
| 20260503211553 | 88 | 96 | 0.0 | 6.0 | 0.00 | 0.00 | 0.00 | 26 | 1005.6 |
| 20260503210051 | 88 | 133 | 1.0 | 7.0 | 0.00 | 0.00 | 0.00 | 25 | 1005.9 |
| 20260503204547 | 87 | 105 | 2.0 | 9.0 | 0.00 | 0.00 | 0.00 | 25 | 1005.9 |
| 20260503203046 | 86 | 131 | 2.0 | 11.0 | 0.00 | 0.00 | 0.00 | 26 | 1006.2 |
| 20260503201544 | 86 | 107 | 3.0 | 10.0 | 0.00 | 0.00 | 0.00 | 26 | 1006.3 |
| 20260503200038 | 86 | 136 | 2.0 | 7.0 | 0.00 | 0.00 | 0.00 | 25 | 1006.6 |
| 20260503194540 | 85 | 120 | 3.0 | 7.0 | 0.00 | 0.00 | 0.00 | 26 | 1006.8 |
| 20260503193029 | 85 | 108 | 3.0 | 8.0 | 0.00 | 0.00 | 0.00 | 28 | 1007.1 |
| 20260503191525 | 83 | 91 | 3.0 | 12.0 | 0.00 | 0.00 | 0.00 | 30 | 1007.2 |
| 20260503190036 | 83 | 124 | 5.0 | 11.0 | 0.00 | 0.00 | 0.00 | 30 | 1007.3 |
| 20260503184520 | 82 | 131 | 5.0 | 12.0 | 0.00 | 0.00 | 0.00 | 31 | 1007.7 |
| 20260503183016 | 82 | 129 | 3.0 | 8.0 | 0.00 | 0.00 | 0.00 | 31 | 1007.9 |
| 20260503181531 | 82 | 157 | 3.0 | 9.0 | 0.00 | 0.00 | 0.00 | 31 | 1008.2 |
| 20260503180024 | 82 | 131 | 2.0 | 12.0 | 0.00 | 0.00 | 0.00 | 32 | 1008.5 |
| 20260503174513 | 82 | 124 | 3.0 | 11.0 | 0.00 | 0.00 | 0.00 | 31 | 1008.6 |
| 20260503173008 | 82 | 124 | 2.0 | 6.0 | 0.00 | 0.00 | 0.00 | 31 | 1008.8 |
| 20260503171510 | 81 | 125 | 4.0 | 9.0 | 0.00 | 0.00 | 0.00 | 32 | 1008.9 |
| 20260503081534 | 74 | 122 | 0.0 | 5.0 | 0.00 | 0.00 | 0.00 | 35 | 1008.4 |